When you browse on this site, cookies collect data to enhance your experience and personalize the content and advertising you see.
Visit our Privacy Policy to learn more. By continuing to use the site, you agree to this use of cookies and data.
  • In Österreich
  • Länderverzeichnis
  • Für 7 Tage
  • Wassertemperatur
  • Wetterkarte
  • News
  • Widgets
  • user-avatar
    Anmelden

    Stündliche Wetter Kashtelu-Branku

    Heute, 4 April, Samstag

    Zeit Temperatur Niederschläge Wind Luftdruck Luftfeuchtigkeit
    00:00 +10°C° 0 mm 1 m/S 728 mmHg 80%
    01:00 +10°C° 0 mm 1 m/S 728 mmHg 81%
    02:00 +8°C° 0 mm 2 m/S 727 mmHg 82%
    03:00 +8°C° 0 mm 2 m/S 727 mmHg 84%
    04:00 +8°C° 0 mm 2 m/S 727 mmHg 85%
    05:00 +7°C° 0 mm 2 m/S 727 mmHg 86%
    06:00 +7°C° 0 mm 2 m/S 726 mmHg 86%
    07:00 +9°C° 0 mm 2 m/S 727 mmHg 80%
    08:00 +10°C° 0 mm 2 m/S 727 mmHg 74%
    09:00 +12°C° 0 mm 3 m/S 727 mmHg 67%
    10:00 +14°C° 0 mm 3 m/S 727 mmHg 63%
    11:00 +15°C° 0 mm 4 m/S 727 mmHg 59%
    12:00 +16°C° 0 mm 5 m/S 727 mmHg 55%
    13:00 +17°C° 0 mm 5 m/S 727 mmHg 53%
    14:00 +17°C° 0 mm 5 m/S 727 mmHg 52%
    15:00 +17°C° 0 mm 5 m/S 726 mmHg 51%
    16:00 +17°C° 0.1 mm 4 m/S 726 mmHg 61%
    17:00 +14°C° 0.1 mm 3 m/S 726 mmHg 72%
    18:00 +13°C° 0.1 mm 2 m/S 726 mmHg 82%
    19:00 +13°C° 0 mm 2 m/S 727 mmHg 82%
    20:00 +13°C° 0 mm 2 m/S 727 mmHg 82%
    21:00 +13°C° 0 mm 2 m/S 727 mmHg 82%
    22:00 +12°C° 0 mm 2 m/S 727 mmHg 85%
    23:00 +12°C° 0 mm 2 m/S 727 mmHg 87%

    Morgen, 5 April, Sonntag

    Zeit Temperatur Niederschläge Wind Luftdruck Luftfeuchtigkeit
    00:00 +10°C° 0 mm 2 m/S 727 mmHg 89%
    01:00 +10°C° 0.1 mm 2 m/S 727 mmHg 90%
    02:00 +12°C° 0.1 mm 2 m/S 727 mmHg 91%
    03:00 +12°C° 0.1 mm 2 m/S 727 mmHg 91%
    04:00 +10°C° 0.1 mm 2 m/S 727 mmHg 92%
    05:00 +10°C° 0.1 mm 2 m/S 727 mmHg 92%
    06:00 +10°C° 0.1 mm 2 m/S 727 mmHg 92%
    07:00 +10°C° 0.2 mm 2 m/S 728 mmHg 92%
    08:00 +10°C° 0.2 mm 2 m/S 728 mmHg 92%
    09:00 +11°C° 0.2 mm 3 m/S 728 mmHg 92%
    10:00 +11°C° 0.1 mm 3 m/S 728 mmHg 91%
    11:00 +12°C° 0.1 mm 3 m/S 728 mmHg 91%
    12:00 +13°C° 0.1 mm 3 m/S 728 mmHg 91%
    13:00 +13°C° 2 mm 3 m/S 728 mmHg 93%
    14:00 +13°C° 2 mm 3 m/S 728 mmHg 94%
    15:00 +13°C° 2 mm 3 m/S 727 mmHg 96%
    16:00 +14°C° 3 mm 2 m/S 727 mmHg 97%
    17:00 +14°C° 3 mm 2 m/S 728 mmHg 97%
    18:00 +14°C° 3 mm 1 m/S 728 mmHg 98%
    19:00 +14°C° 1 mm 1 m/S 728 mmHg 98%
    20:00 +14°C° 1 mm 1 m/S 729 mmHg 98%
    21:00 +14°C° 1 mm 1 m/S 729 mmHg 98%
    22:00 +14°C° 0.2 mm 1 m/S 729 mmHg 98%
    23:00 +14°C° 0.2 mm 1 m/S 729 mmHg 98%

    übermorgen, 6 April, Montag

    Zeit Temperatur Niederschläge Wind Luftdruck Luftfeuchtigkeit
    00:00 +14°C° 0.2 mm 1 m/S 730 mmHg 98%
    01:00 +14°C° 0.1 mm 1 m/S 730 mmHg 98%
    02:00 +14°C° 0.1 mm 1 m/S 730 mmHg 98%
    03:00 +13°C° 0.1 mm 1 m/S 730 mmHg 97%
    04:00 +13°C° 0 mm 1 m/S 730 mmHg 97%
    05:00 +12°C° 0 mm 1 m/S 730 mmHg 97%
    06:00 +12°C° 0 mm 1 m/S 731 mmHg 97%
    07:00 +13°C° 0 mm 1 m/S 731 mmHg 93%
    08:00 +14°C° 0 mm 1 m/S 732 mmHg 89%
    09:00 +15°C° 0 mm 1 m/S 733 mmHg 86%
    10:00 +17°C° 0.1 mm 2 m/S 733 mmHg 78%
    11:00 +18°C° 0.1 mm 2 m/S 733 mmHg 70%
    12:00 +19°C° 0.1 mm 2 m/S 733 mmHg 62%
    13:00 +19°C° 0.2 mm 2 m/S 733 mmHg 61%
    14:00 +20°C° 0.2 mm 3 m/S 733 mmHg 59%
    15:00 +20°C° 0.2 mm 3 m/S 733 mmHg 58%
    16:00 +19°C° 0.2 mm 3 m/S 733 mmHg 63%
    17:00 +18°C° 0.2 mm 2 m/S 733 mmHg 68%
    18:00 +17°C° 0.2 mm 2 m/S 733 mmHg 73%
    19:00 +16°C° 0 mm 2 m/S 734 mmHg 78%
    20:00 +14°C° 0 mm 1 m/S 734 mmHg 82%
    21:00 +13°C° 0 mm 1 m/S 735 mmHg 87%
    22:00 +12°C° 0 mm 1 m/S 735 mmHg 87%
    23:00 +12°C° 0 mm 1 m/S 735 mmHg 87%

    7 April, Dienstag

    Zeit Temperatur Niederschläge Wind Luftdruck Luftfeuchtigkeit
    00:00 +10°C° 0 mm 0 m/S 735 mmHg 87%
    01:00 +10°C° 0 mm 0 m/S 734 mmHg 87%
    02:00 +10°C° 0 mm 0 m/S 734 mmHg 87%
    03:00 +10°C° 0 mm 0 m/S 734 mmHg 87%
    04:00 +9°C° 0 mm 0 m/S 734 mmHg 88%
    05:00 +9°C° 0 mm 0 m/S 734 mmHg 89%
    06:00 +9°C° 0 mm 0 m/S 734 mmHg 90%
    07:00 +12°C° 0 mm 1 m/S 735 mmHg 84%
    08:00 +14°C° 0 mm 1 m/S 735 mmHg 78%
    09:00 +16°C° 0 mm 1 m/S 735 mmHg 72%
    10:00 +19°C° 0 mm 1 m/S 735 mmHg 66%
    11:00 +20°C° 0 mm 1 m/S 736 mmHg 60%
    12:00 +22°C° 0 mm 1 m/S 736 mmHg 54%
    13:00 +23°C° 0 mm 1 m/S 735 mmHg 53%
    14:00 +23°C° 0 mm 1 m/S 735 mmHg 52%
    15:00 +23°C° 0 mm 1 m/S 735 mmHg 51%
    16:00 +22°C° 0 mm 1 m/S 735 mmHg 56%
    17:00 +19°C° 0 mm 0 m/S 734 mmHg 62%
    18:00 +18°C° 0 mm 0 m/S 734 mmHg 67%
    19:00 +17°C° 0 mm 0 m/S 734 mmHg 70%
    20:00 +16°C° 0 mm 0 m/S 735 mmHg 74%
    21:00 +14°C° 0 mm 0 m/S 735 mmHg 77%
    22:00 +14°C° 0 mm 0 m/S 735 mmHg 78%
    23:00 +13°C° 0 mm 0 m/S 735 mmHg 80%

    8 April, Mittwoch

    Zeit Temperatur Niederschläge Wind Luftdruck Luftfeuchtigkeit
    00:00 +13°C° 0 mm 0 m/S 735 mmHg 81%
    01:00 +13°C° 0 mm 0 m/S 735 mmHg 82%
    02:00 +14°C° 0 mm 1 m/S 734 mmHg 83%
    03:00 +13°C° 0 mm 1 m/S 734 mmHg 84%
    04:00 +13°C° 0 mm 1 m/S 734 mmHg 84%
    05:00 +13°C° 0 mm 1 m/S 734 mmHg 84%
    06:00 +13°C° 0 mm 1 m/S 734 mmHg 84%
    07:00 +14°C° 0 mm 1 m/S 734 mmHg 80%
    08:00 +16°C° 0 mm 2 m/S 734 mmHg 77%
    09:00 +17°C° 0 mm 2 m/S 734 mmHg 74%
    10:00 +18°C° 0 mm 2 m/S 734 mmHg 70%
    11:00 +19°C° 0 mm 2 m/S 735 mmHg 66%
    12:00 +21°C° 0 mm 2 m/S 735 mmHg 62%
    13:00 +22°C° 0.1 mm 1 m/S 734 mmHg 62%
    14:00 +22°C° 0.1 mm 1 m/S 734 mmHg 62%
    15:00 +21°C° 0.1 mm 0 m/S 734 mmHg 62%
    16:00 +21°C° 0.1 mm 1 m/S 734 mmHg 68%
    17:00 +20°C° 0.1 mm 1 m/S 733 mmHg 74%
    18:00 +19°C° 0.1 mm 1 m/S 733 mmHg 80%
    19:00 +18°C° 0 mm 1 m/S 733 mmHg 79%
    20:00 +18°C° 0 mm 1 m/S 734 mmHg 79%
    21:00 +16°C° 0 mm 1 m/S 734 mmHg 79%
    22:00 +16°C° 0 mm 1 m/S 734 mmHg 78%
    23:00 +16°C° 0 mm 1 m/S 734 mmHg 78%

    9 April, Donnerstag

    Zeit Temperatur Niederschläge Wind Luftdruck Luftfeuchtigkeit
    00:00 +16°C° 0 mm 1 m/S 734 mmHg 77%
    01:00 +15°C° 0 mm 0 m/S 734 mmHg 77%
    02:00 +15°C° 0 mm 0 m/S 733 mmHg 77%
    03:00 +15°C° 0 mm 0 m/S 733 mmHg 78%
    04:00 +14°C° 0.1 mm 0 m/S 733 mmHg 79%
    05:00 +15°C° 0.1 mm 1 m/S 733 mmHg 81%
    06:00 +15°C° 0.1 mm 1 m/S 733 mmHg 83%
    07:00 +15°C° 0.3 mm 1 m/S 733 mmHg 86%
    08:00 +15°C° 0.3 mm 1 m/S 734 mmHg 89%
    09:00 +15°C° 0.3 mm 1 m/S 734 mmHg 91%
    10:00 +15°C° 0.5 mm 1 m/S 734 mmHg 92%
    11:00 +15°C° 0.5 mm 1 m/S 734 mmHg 92%
    12:00 +15°C° 0.5 mm 2 m/S 734 mmHg 93%
    13:00 +15°C° 0.2 mm 1 m/S 734 mmHg 93%
    14:00 +15°C° 0.2 mm 1 m/S 734 mmHg 93%
    15:00 +15°C° 0.2 mm 1 m/S 733 mmHg 94%
    16:00 +14°C° 0.1 mm 1 m/S 733 mmHg 94%
    17:00 +14°C° 0.1 mm 1 m/S 733 mmHg 95%
    18:00 +14°C° 0.1 mm 1 m/S 733 mmHg 95%
    19:00 +14°C° 0 mm 1 m/S 733 mmHg 96%
    20:00 +13°C° 0 mm 0 m/S 733 mmHg 96%
    21:00 +13°C° 0 mm 0 m/S 734 mmHg 96%
    22:00 +13°C° 0 mm 0 m/S 734 mmHg 95%
    23:00 +13°C° 0 mm 0 m/S 733 mmHg 95%
    Mehr zeigen